This is the latest recevied weather packets stored in our database for station/object KN4PLO. If no packets are shown the sender has not sent any weather packets the latest 1 day(s).
| Time | Temp. | Humidity | Pressure | Rain* | Wind** | Luminosity | Snow |
|---|---|---|---|---|---|---|---|
| 1778054845 | 18.33° C | 100% | - | 0 mm | 1.34 m/s, 255° | - | - |
| 1778054573 | 18.33° C | 100% | - | 0 mm | 4.47 m/s, 188° | - | - |
| 1778054273 | 18.33° C | 100% | - | 0 mm | 4.92 m/s, 218° | - | - |
| 1778054244 | 18.33° C | 100% | - | 0 mm | 3.58 m/s, 230° | - | - |
| 1778053973 | 18.33° C | 100% | - | 0 mm | 3.58 m/s, 221° | - | - |
| 1778053673 | 18.33° C | 100% | - | 0 mm | 2.68 m/s, 215° | - | - |
| 1778053644 | 18.33° C | 100% | - | 0 mm | 3.58 m/s, 200° | - | - |
| 1778053373 | 18.33° C | 100% | - | 0 mm | 5.81 m/s, 233° | - | - |
| 1778053073 | 18.33° C | 100% | - | 0 mm | 4.47 m/s, 226° | - | - |
| 1778053044 | 18.33° C | 100% | - | 0 mm | 4.02 m/s, 241° | - | - |
| 1778052773 | 18.33° C | 100% | - | 0 mm | 1.79 m/s, 236° | - | - |
| 1778052473 | 18.33° C | 100% | - | 0 mm | 2.68 m/s, 215° | - | - |
| 1778052444 | 18.33° C | 100% | - | 0 mm | 3.58 m/s, 222° | - | - |
| 1778052173 | 18.33° C | 100% | - | 0 mm | 3.58 m/s, 240° | - | - |
| 1778051873 | 18.33° C | 100% | - | 0 mm | 0.89 m/s, 255° | - | - |
| 1778051846 | 18.33° C | 100% | - | 0 mm | 3.13 m/s, 190° | - | - |
| 1778051573 | 18.33° C | 100% | - | 0 mm | 4.92 m/s, 215° | - | - |
| 1778051273 | 18.33° C | 100% | - | 0 mm | 2.68 m/s, 195° | - | - |
| 1778051244 | 18.33° C | 100% | - | 0 mm | 2.24 m/s, 196° | - | - |
| 1778050973 | 18.33° C | 100% | - | 0 mm | 2.24 m/s, 222° | - | - |
| 1778050673 | 18.33° C | 100% | - | 0 mm | 2.24 m/s, 214° | - | - |
| 1778050644 | 18.33° C | 100% | - | 0 mm | 1.79 m/s, 221° | - | - |
| 1778050373 | 18.33° C | 100% | - | 0 mm | 2.24 m/s, 215° | - | - |
| 1778050073 | 18.33° C | 100% | - | 0 mm | 0.45 m/s, 229° | - | - |
| 1778050046 | 18.33° C | 100% | - | 0 mm | 3.13 m/s, 207° | - | - |
* Rain latest hour (hover to see other rain measurements)
** Current wind speed in m/s (hover to see current wind gust speed)